Fes Cuautitlan, Mexico

3:03 AM CST on February 26, 2017 (GMT -0600)
Lic Benito Juarez International

Weather History for MMMX - September, 2013

Change the Weather History Date:

Sunday, September 22, 2013

  Actual Average Record
Temperature  
Mean Temperature 65 °F -  
Max Temperature 73 °F 71 °F 77 °F (2010)
Min Temperature 57 °F 51 °F 46 °F (2005)
Growing Degree Days 15 (Base 50)    
Moisture  
Dew Point 55 °F    
Average Humidity 77    
Maximum Humidity 94    
Minimum Humidity 47    
Precipitation  
Precipitation 1.30 in - - ()
Sea Level Pressure  
Sea Level Pressure 30.04 in    
Wind  
Wind Speed 5 mph ()    
Max Wind Speed 12 mph    
Max Gust Speed -    
Visibility 6.9 miles    
Events Rain    
Averages and records for this station are not official NWS values.
T = Trace of Precipitation, MM = Missing Value Source: Averaged Metar Reports

Daily Weather History Graph

Daily Weather History Graph

Search for Another Location

Airport or City:

Trip Planner

Search our weather history database for the weather conditions in past years. The results will help you decide how hot, cold, wet, or windy it might be!

Date:

Astronomy

Sep. 22, 2013 Rise Set
Actual Time 7:25 AM CDT 7:32 PM CDT
Civil Twilight 7:03 AM CDT 7:54 PM CDT
Nautical Twilight 6:37 AM CDT 8:19 PM CDT
Astronomical Twilight 6:12 AM CDT 8:45 PM CDT
Moon 9:56 PM CDT (9/22) 10:15 AM CDT (9/22)
Length of Visible Light 12h 50m
Length of Day
12h 07m
Waning Gibbous, 88% of the Moon is Illuminated
Sep 22
Waning Gibbous
Sep 26
Last Quarter
Oct 4
New
Oct 11
First Quarter
Oct 18
Full

Hourly Weather History & Observations

Time (CDT) Temp. Dew Point Humidity Pressure Visibility Wind Dir Wind Speed Gust Speed Precip Events Conditions
12:46 AM 62.6 °F 55.4 °F 77% 29.63 in 12.0 mi NW 3.5 mph - N/A   Overcast
1:47 AM 62.6 °F 55.4 °F 77% 30.17 in 12.0 mi WNW 3.5 mph - N/A   Overcast
2:45 AM 60.8 °F 55.4 °F 82% 30.15 in 12.0 mi North 9.2 mph - N/A   Overcast
3:48 AM 60.8 °F 55.4 °F 82% 29.57 in 7.0 mi NNW 8.1 mph - N/A Rain Light Rain
4:43 AM 59.0 °F 57.2 °F 94% 30.14 in 7.0 mi North 6.9 mph - N/A Rain Light Rain
5:44 AM 57.2 °F 55.4 °F 94% 30.14 in 7.0 mi North 9.2 mph - N/A Rain Light Rain
6:39 AM 57.2 °F 55.4 °F 94% 30.15 in 6.0 mi North 9.2 mph - N/A Rain Light Rain
6:46 AM 57.2 °F 55.4 °F 94% 29.70 in 6.0 mi North 6.9 mph - N/A Rain Light Rain
7:30 AM 57.2 °F 55.4 °F 94% 30.16 in 2.0 mi North 3.5 mph - N/A Rain Rain
7:31 AM 57.2 °F 55.4 °F 94% 30.16 in 2.0 mi North 3.5 mph - N/A Rain Rain
7:46 AM 57.2 °F 55.4 °F 94% 3.01 in 3.0 mi North 4.6 mph - N/A Rain Light Rain
7:48 AM 57.2 °F 55.4 °F 94% 30.16 in 3.0 mi North 4.6 mph - N/A Rain Light Rain
8:17 AM 57.2 °F 55.4 °F 94% 30.16 in 4.0 mi NW 3.5 mph - N/A Rain Light Rain
8:22 AM 57.2 °F 55.4 °F 94% 30.17 in 4.0 mi Calm Calm - N/A Rain Light Rain
8:46 AM 59.0 °F 55.4 °F 88% 30.17 in 6.0 mi NW 4.6 mph - N/A   Overcast
8:50 AM 59.0 °F 55.4 °F 88% 30.17 in 6.0 mi NW 4.6 mph - N/A   Overcast
9:16 AM 59.0 °F 55.4 °F 88% 30.18 in 6.0 mi West 3.5 mph - N/A   Overcast
9:45 AM 60.8 °F 55.4 °F 82% 30.18 in 7.0 mi Calm Calm - N/A   Overcast
9:47 AM 60.8 °F 55.4 °F 82% 29.70 in 7.0 mi Calm Calm - N/A   Overcast
10:22 AM 62.6 °F 55.4 °F 77% 30.19 in 7.0 mi Calm Calm - N/A   Overcast
10:42 AM 62.6 °F 57.2 °F 82% 30.19 in 7.0 mi NNE 3.5 mph - N/A   Overcast
11:45 AM 66.2 °F 57.2 °F 73% 30.19 in 7.0 mi NNE 4.6 mph - N/A   Mostly Cloudy
11:47 AM 66.2 °F 57.2 °F 73% 30.19 in 7.0 mi NNE 4.6 mph - N/A   Mostly Cloudy
12:44 PM 69.8 °F 53.6 °F 56% 30.17 in 7.0 mi East 6.9 mph - N/A   Mostly Cloudy
12:46 PM 69.8 °F 53.6 °F 56% 29.64 in 7.0 mi East 6.9 mph - N/A   Mostly Cloudy
1:48 PM 71.6 °F 55.4 °F 57% 30.14 in 7.0 mi ENE 6.9 mph - N/A   Mostly Cloudy
2:50 PM 71.6 °F 53.6 °F 53% 30.12 in 7.0 mi East 11.5 mph - N/A   Overcast
3:49 PM 73.4 °F 51.8 °F 47% 29.55 in 8.0 mi East 9.2 mph - N/A   Mostly Cloudy
4:49 PM 73.4 °F 53.6 °F 50% 30.07 in 9.0 mi East 11.5 mph - N/A   Mostly Cloudy
5:46 PM 71.6 °F 53.6 °F 53% 30.07 in 9.0 mi ESE 9.2 mph - N/A   Mostly Cloudy
6:44 PM 71.6 °F 53.6 °F 53% 29.57 in 8.0 mi East 9.2 mph - N/A   Mostly Cloudy
7:49 PM 69.8 °F 53.6 °F 56% 30.10 in 7.0 mi East 10.4 mph - N/A   Mostly Cloudy
8:46 PM 68.0 °F 53.6 °F 60% 30.13 in 8.0 mi NE 8.1 mph - N/A   Scattered Clouds
9:39 PM 64.4 °F 57.2 °F 77% 30.15 in 8.0 mi North 11.5 mph - N/A   Scattered Clouds
9:45 PM 64.4 °F 57.2 °F 77% 29.65 in 8.0 mi North 10.4 mph - N/A   Scattered Clouds
10:48 PM 64.4 °F 55.4 °F 73% 30.17 in 8.0 mi North 9.2 mph - N/A   Mostly Cloudy
11:49 PM 62.6 °F 55.4 °F 77% 30.19 in 8.0 mi NE 6.9 mph - N/A   Overcast